| time (UTC) | temp F | wind direction | speed knots | gust knots | rain 1hr in | rain 24hr in | rain mn in | humidity % | barometer mb |
| 20260902055710 | 77 | 238 | 2.6 | 6.1 | 0.00 | 0.01 | 0.00 | 78 | 1008.5 |
| 20260902054710 | 77 | 56 | 0.9 | 4.3 | 0.00 | 0.01 | 0.00 | 83 | 1008.4 |
| 20260902053711 | 78 | 96 | 0.0 | 0.9 | 0.00 | 0.01 | 0.00 | 82 | 1008.3 |
| 20260902052710 | 78 | 96 | 0.0 | 1.7 | 0.00 | 0.01 | 0.00 | 82 | 1008.4 |
| 20260902051711 | 78 | 100 | 0.9 | 2.6 | 0.00 | 0.01 | 0.00 | 82 | 1008.3 |
| 20260902050711 | 79 | 140 | 1.7 | 4.3 | 0.00 | 0.01 | 0.00 | 82 | 1008.1 |
| 20260902045710 | 79 | 140 | 0.9 | 2.6 | 0.00 | 0.01 | 0.01 | 81 | 1008.3 |
| 20260902044711 | 79 | 61 | 3.5 | 7.0 | 0.00 | 0.01 | 0.01 | 81 | 1008.1 |
| 20260902043710 | 80 | 100 | 2.6 | 7.0 | 0.00 | 0.01 | 0.01 | 81 | 1008.4 |
| 20260902042710 | 80 | 73 | 4.3 | 7.8 | 0.00 | 0.01 | 0.01 | 81 | 1008.4 |
| 20260902041710 | 80 | 63 | 1.7 | 7.0 | 0.00 | 0.01 | 0.01 | 81 | 1008.5 |
| 20260902035711 | 80 | 334 | 4.3 | 7.0 | 0.00 | 0.01 | 0.01 | 81 | 1008.9 |
| 20260902033710 | 81 | 101 | 0.9 | 2.6 | 0.00 | 0.01 | 0.01 | 81 | 1008.5 |
| 20260902032710 | 81 | 79 | 0.0 | 2.6 | 0.00 | 0.01 | 0.01 | 80 | 1008.5 |
| 20260902031710 | 81 | 63 | 1.7 | 2.6 | 0.00 | 0.01 | 0.01 | 80 | 1008.5 |
| 20260902030710 | 81 | 61 | 1.7 | 2.6 | 0.00 | 0.01 | 0.01 | 80 | 1008.5 |
| 20260902025711 | 82 | 57 | 1.7 | 2.6 | 0.00 | 0.01 | 0.01 | 79 | 1008.4 |
| 20260902024711 | 82 | 96 | 0.9 | 2.6 | 0.00 | 0.01 | 0.01 | 78 | 1008.3 |
| 20260902023711 | 82 | 94 | 1.7 | 2.6 | 0.00 | 0.01 | 0.01 | 78 | 1008.2 |
| 20260902022711 | 83 | 49 | 0.9 | 2.6 | 0.00 | 0.01 | 0.01 | 78 | 1008.1 |
| 20260902021711 | 83 | 54 | 0.9 | 2.6 | 0.00 | 0.01 | 0.01 | 77 | 1007.9 |
| 20260902020710 | 83 | 59 | 1.7 | 2.6 | 0.00 | 0.01 | 0.01 | 76 | 1007.7 |
| 20260902014710 | 84 | 176 | 0.0 | 0.0 | 0.00 | 0.01 | 0.01 | 73 | 1007.4 |
| 20260902013710 | 85 | 210 | 0.0 | 0.0 | 0.00 | 0.01 | 0.01 | 72 | 1007.3 |
| 20260902012710 | 86 | 210 | 0.0 | 0.0 | 0.00 | 0.01 | 0.01 | 71 | 1007.2 |
| 20260902011711 | 87 | 210 | 0.0 | 0.0 | 0.00 | 0.01 | 0.01 | 69 | 1007.2 |
| 20260902010710 | 87 | 209 | 0.0 | 0.9 | 0.00 | 0.01 | 0.01 | 68 | 1007.5 |
| 20260902004710 | 88 | 175 | 0.0 | 1.7 | 0.00 | 0.01 | 0.01 | 66 | 1007.4 |
| 20260902003711 | 88 | 178 | 0.9 | 2.6 | 0.00 | 0.01 | 0.01 | 65 | 1007.4 |
| 20260902002710 | 89 | 189 | 0.9 | 4.3 | 0.00 | 0.01 | 0.01 | 65 | 1007.3 |
| 20260902001710 | 89 | 181 | 1.7 | 2.6 | 0.00 | 0.01 | 0.01 | 65 | 1007.3 |
| 20260901235710 | 89 | 161 | 2.6 | 4.3 | 0.00 | 0.01 | 0.01 | 64 | 1007.4 |
| 20260901234710 | 89 | 178 | 4.3 | 6.1 | 0.00 | 0.01 | 0.01 | 63 | 1007.5 |
| 20260901233711 | 90 | 175 | 3.5 | 7.8 | 0.00 | 0.01 | 0.01 | 63 | 1007.6 |
| 20260901232710 | 90 | 188 | 4.3 | 6.1 | 0.00 | 0.01 | 0.01 | 62 | 1007.7 |
| 20260901231711 | 91 | 164 | 4.3 | 8.7 | 0.00 | 0.01 | 0.01 | 61 | 1007.7 |
| 20260901230710 | 91 | 173 | 4.3 | 7.8 | 0.00 | 0.01 | 0.01 | 62 | 1007.8 |
| 20260901225710 | 91 | 165 | 4.3 | 8.7 | 0.00 | 0.01 | 0.01 | 60 | 1007.9 |
| 20260901224711 | 91 | 162 | 5.2 | 8.7 | 0.00 | 0.01 | 0.01 | 60 | 1008.0 |
| 20260901223711 | 91 | 171 | 5.2 | 8.7 | 0.00 | 0.01 | 0.01 | 60 | 1008.1 |
| 20260901222710 | 91 | 189 | 2.6 | 10.4 | 0.00 | 0.01 | 0.01 | 60 | 1008.1 |
| 20260901221711 | 92 | 171 | 3.5 | 8.7 | 0.00 | 0.01 | 0.01 | 58 | 1008.1 |
| 20260901215711 | 92 | 166 | 7.0 | 10.4 | 0.00 | 0.01 | 0.01 | 55 | 1008.2 |
| 20260901214710 | 92 | 164 | 4.3 | 8.7 | 0.00 | 0.01 | 0.01 | 56 | 1008.4 |
| 20260901213711 | 92 | 194 | 5.2 | 7.8 | 0.00 | 0.01 | 0.01 | 56 | 1008.4 |
| 20260901212710 | 92 | 164 | 4.3 | 7.8 | 0.00 | 0.01 | 0.01 | 56 | 1008.5 |
| 20260901211710 | 92 | 197 | 5.2 | 10.4 | 0.00 | 0.01 | 0.01 | 55 | 1008.5 |
| 20260901204711 | 92 | 175 | 5.2 | 12.2 | 0.00 | 0.01 | 0.01 | 56 | 1008.8 |
| 20260901203710 | 92 | 171 | 5.2 | 10.4 | 0.00 | 0.01 | 0.01 | 56 | 1008.9 |
| 20260901202710 | 92 | 171 | 4.3 | 12.2 | 0.00 | 0.01 | 0.01 | 57 | 1008.9 |
| 20260901201710 | 91 | 191 | 1.7 | 10.4 | 0.00 | 0.01 | 0.01 | 60 | 1009.1 |
| 20260901200711 | 90 | 170 | 2.6 | 7.8 | 0.00 | 0.01 | 0.01 | 60 | 1009.2 |
| 20260901195710 | 90 | 138 | 5.2 | 10.4 | 0.00 | 0.01 | 0.01 | 62 | 1009.3 |
| 20260901194710 | 90 | 176 | 5.2 | 12.2 | 0.00 | 0.01 | 0.01 | 60 | 1009.6 |
| 20260901193711 | 89 | 187 | 5.2 | 7.8 | 0.00 | 0.01 | 0.01 | 62 | 1009.6 |
| 20260901192711 | 88 | 170 | 5.2 | 10.4 | 0.00 | 0.01 | 0.01 | 66 | 1009.6 |
| 20260901191710 | 88 | 94 | 6.1 | 14.8 | 0.00 | 0.01 | 0.01 | 63 | 1009.6 |
| 20260901185710 | 88 | 190 | 7.0 | 15.6 | 0.00 | 0.01 | 0.01 | 66 | 1009.6 |
| 20260901184711 | 88 | 122 | 7.8 | 13.0 | 0.00 | 0.01 | 0.01 | 66 | 1009.6 |
| 20260901183710 | 88 | 139 | 6.1 | 12.2 | 0.00 | 0.01 | 0.01 | 68 | 1009.6 |
| 20260901182710 | 88 | 81 | 6.1 | 15.6 | 0.00 | 0.01 | 0.01 | 68 | 1009.7 |
| 20260901175711 | 87 | 94 | 6.1 | 8.7 | 0.00 | 0.01 | 0.01 | 68 | 1010.1 |
| 20260901174710 | 87 | 96 | 6.1 | 10.4 | 0.00 | 0.01 | 0.01 | 69 | 1010.2 |
| 20260901173710 | 87 | 94 | 4.3 | 8.7 | 0.00 | 0.01 | 0.01 | 72 | 1010.1 |
| 20260901172710 | 87 | 115 | 4.3 | 7.8 | 0.00 | 0.01 | 0.01 | 70 | 1010.1 |
| 20260901171711 | 86 | 58 | 4.3 | 10.4 | 0.00 | 0.01 | 0.01 | 71 | 1010.2 |
| 20260901170710 | 86 | 68 | 4.3 | 10.4 | 0.00 | 0.01 | 0.01 | 70 | 1010.1 |
| 20260901165711 | 86 | 52 | 2.6 | 7.8 | 0.00 | 0.01 | 0.01 | 71 | 1010.2 |
| 20260901164710 | 86 | 315 | 2.6 | 7.8 | 0.00 | 0.01 | 0.01 | 70 | 1010.3 |
| 20260901162711 | 84 | 44 | 4.3 | 10.4 | 0.00 | 0.01 | 0.01 | 73 | 1010.3 |
| 20260901161710 | 84 | 36 | 4.3 | 7.8 | 0.00 | 0.01 | 0.01 | 72 | 1010.4 |
| 20260901160711 | 84 | 327 | 3.5 | 7.0 | 0.00 | 0.01 | 0.01 | 71 | 1010.5 |
| 20260901155710 | 83 | 29 | 2.6 | 7.8 | 0.00 | 0.01 | 0.01 | 71 | 1010.5 |
| 20260901154710 | 83 | 42 | 2.6 | 6.1 | 0.00 | 0.01 | 0.01 | 71 | 1010.3 |
| 20260901153710 | 83 | 23 | 4.3 | 7.0 | 0.00 | 0.01 | 0.01 | 72 | 1010.4 |
| 20260901152711 | 83 | 47 | 2.6 | 6.1 | 0.00 | 0.01 | 0.01 | 72 | 1010.3 |
| 20260901151712 | 83 | 61 | 3.5 | 6.1 | 0.00 | 0.01 | 0.01 | 69 | 1010.3 |
| 20260901150710 | 83 | 11 | 2.6 | 5.2 | 0.00 | 0.01 | 0.01 | 70 | 1010.3 |
| 20260901145710 | 83 | 0 | 1.7 | 4.3 | 0.00 | 0.01 | 0.01 | 70 | 1010.5 |
| 20260901144710 | 82 | 57 | 0.0 | 2.6 | 0.00 | 0.01 | 0.01 | 71 | 1010.4 |
| 20260901143711 | 81 | 69 | 0.9 | 2.6 | 0.00 | 0.01 | 0.01 | 73 | 1010.6 |
| 20260901142711 | 80 | 115 | 0.9 | 2.6 | 0.00 | 0.01 | 0.01 | 75 | 1010.6 |
| 20260901141711 | 79 | 69 | 0.9 | 2.6 | 0.00 | 0.01 | 0.01 | 76 | 1010.9 |
| 20260901140710 | 79 | 117 | 1.7 | 2.6 | 0.00 | 0.01 | 0.01 | 80 | 1010.7 |
| 20260901134710 | 77 | 56 | 1.7 | 2.6 | 0.00 | 0.01 | 0.01 | 86 | 1011.1 |
| 20260901133712 | 77 | 108 | 0.9 | 1.7 | 0.00 | 0.01 | 0.01 | 86 | 1011.2 |
| 20260901132710 | 76 | 101 | 0.9 | 1.7 | 0.00 | 0.01 | 0.01 | 88 | 1011.2 |
| 20260901131711 | 75 | 101 | 0.0 | 0.0 | 0.00 | 0.01 | 0.01 | 90 | 1011.2 |
| 20260901130710 | 74 | 101 | 0.0 | 1.7 | 0.00 | 0.01 | 0.01 | 90 | 1011.0 |
| 20260901124711 | 74 | 69 | 0.0 | 0.0 | 0.00 | 0.01 | 0.01 | 90 | 1010.8 |
| 20260901123711 | 73 | 69 | 0.0 | 2.6 | 0.00 | 0.01 | 0.01 | 90 | 1010.6 |
| 20260901122711 | 73 | 88 | 0.9 | 2.6 | 0.00 | 0.01 | 0.01 | 90 | 1010.5 |
| 20260901121711 | 73 | 55 | 1.7 | 2.6 | 0.00 | 0.01 | 0.01 | 90 | 1010.3 |
| 20260901120710 | 73 | 55 | 0.0 | 2.6 | 0.00 | 0.01 | 0.01 | 90 | 1010.4 |
| 20260901115711 | 73 | 49 | 0.9 | 2.6 | 0.00 | 0.01 | 0.01 | 90 | 1010.3 |
| 20260901114711 | 73 | 48 | 0.0 | 2.6 | 0.00 | 0.01 | 0.01 | 90 | 1010.2 |
| 20260901113711 | 73 | 59 | 0.9 | 1.7 | 0.00 | 0.01 | 0.01 | 90 | 1010.2 |
| 20260901112711 | 74 | 76 | 0.0 | 2.6 | 0.00 | 0.01 | 0.01 | 90 | 1010.1 |
| 20260901111711 | 74 | 48 | 1.7 | 2.6 | 0.00 | 0.01 | 0.01 | 90 | 1009.9 |
| 20260901110710 | 74 | 66 | 0.0 | 2.6 | 0.00 | 0.01 | 0.01 | 90 | 1009.9 |
| 20260901105711 | 74 | 54 | 0.9 | 4.3 | 0.00 | 0.01 | 0.01 | 90 | 1009.9 |
| 20260901104710 | 74 | 59 | 1.7 | 2.6 | 0.00 | 0.01 | 0.01 | 89 | 1010.0 |
| 20260901102710 | 75 | 89 | 1.7 | 2.6 | 0.00 | 0.01 | 0.01 | 88 | 1009.9 |
| 20260901101711 | 75 | 68 | 0.9 | 1.7 | 0.00 | 0.01 | 0.01 | 87 | 1010.1 |
| 20260901100710 | 75 | 137 | 0.0 | 1.7 | 0.00 | 0.01 | 0.01 | 87 | 1010.2 |
| 20260901095711 | 75 | 137 | 0.0 | 1.7 | 0.00 | 0.01 | 0.01 | 86 | 1010.2 |
| 20260901094711 | 76 | 137 | 0.9 | 2.6 | 0.00 | 0.01 | 0.01 | 85 | 1010.2 |
| 20260901093710 | 76 | 108 | 0.0 | 1.7 | 0.00 | 0.01 | 0.01 | 85 | 1010.2 |
| 20260901091711 | 77 | 123 | 1.7 | 2.6 | 0.00 | 0.01 | 0.01 | 84 | 1010.4 |
| 20260901090710 | 77 | 61 | 0.0 | 0.0 | 0.00 | 0.01 | 0.01 | 84 | 1010.3 |
| 20260901085710 | 77 | 61 | 0.0 | 1.7 | 0.00 | 0.01 | 0.01 | 84 | 1010.5 |
| 20260901084711 | 77 | 34 | 0.9 | 1.7 | 0.01 | 0.01 | 0.01 | 83 | 1010.8 |
| 20260901083710 | 77 | 109 | 0.9 | 6.1 | 0.01 | 0.01 | 0.01 | 83 | 1010.4 |
| 20260901082711 | 77 | 127 | 4.3 | 6.1 | 0.01 | 0.01 | 0.01 | 84 | 1010.3 |
| 20260901081710 | 77 | 100 | 1.7 | 6.1 | 0.01 | 0.01 | 0.01 | 85 | 1010.4 |
| 20260901080710 | 77 | 142 | 2.6 | 6.1 | 0.01 | 0.01 | 0.01 | 84 | 1010.5 |
| 20260901075711 | 78 | 115 | 3.5 | 6.1 | 0.01 | 0.01 | 0.01 | 84 | 1010.7 |
| 20260901074711 | 77 | 108 | 1.7 | 2.6 | 0.00 | 0.00 | 0.00 | 83 | 1011.1 |
| 20260901072710 | 78 | 146 | 0.9 | 1.7 | 0.00 | 0.00 | 0.00 | 84 | 1011.2 |
| 20260901071711 | 78 | 93 | 0.0 | 0.0 | 0.00 | 0.00 | 0.00 | 84 | 1011.1 |
| 20260901070710 | 78 | 93 | 0.0 | 0.9 | 0.00 | 0.00 | 0.00 | 84 | 1010.9 |
| 20260901065711 | 78 | 94 | 0.9 | 2.6 | 0.00 | 0.00 | 0.00 | 84 | 1011.3 |
| 20260901064711 | 78 | 59 | 0.9 | 1.7 | 0.00 | 0.00 | 0.00 | 84 | 1011.3 |
| 20260901063710 | 78 | 114 | 0.9 | 2.6 | 0.00 | 0.00 | 0.00 | 83 | 1011.3 |
| 20260901062711 | 78 | 98 | 1.7 | 2.6 | 0.00 | 0.00 | 0.00 | 84 | 1011.3 |
| 20260901061710 | 77 | 108 | 0.9 | 2.6 | 0.00 | 0.00 | 0.00 | 84 | 1011.3 |